{"data":{"norad_id":62497,"epoch":"2026-05-24T22:14:49.406208Z","epoch_age_seconds":81102,"freshness":"FRESH","line1":"1 62497U 25003L   26144.92696072  .00013121  00000+0  48541-3 0  9998","line2":"2 62497  43.0016 218.2006 0002431 281.6237  78.4342 15.27584821 78334","mean_motion":15.27584821,"eccentricity":0.0002431,"inclination_deg":43.0016,"raan_deg":218.2006,"arg_perigee_deg":281.6237,"mean_anomaly_deg":78.4342,"bstar":0.00048541,"rev_number":7833,"period_min":94.266451211353,"perigee_km":481.36670943866,"apogee_km":484.70261109988,"semimajor_km":6861.1716602693,"source":"CELESTRAK","updated_at":"2026-05-25T13:38:19.698258Z"}}